Location: Unspecified
(10.5000°N, 0.0000°E)
Time: 20:50:02
(UTC+00:00)

Envisat - Pass Details

Date: 23 June 2019
Orbit: 764 x 766 km, 98.1° (Epoch: 17 July)

Event Time Altitude Azimuth Distance (km) Brightness Sun altitude
Rises 19:16:17 0° 186° (S) 3,223 6.0 -12.4°
Reaches altitude 10° 19:18:46 10° 195° (SSW) 2,297 5.3 -12.9°
Maximum altitude 19:23:19 34° 259° (W) 1,238 4.6 -13.9°
Drops below altitude 10° 19:27:53 10° 324° (NW) 2,296 6.5 -14.9°
Sets 19:30:23 0° 333° (NNW) 3,222 7.2 -15.4°
